This demonstration page uses our WeatherBlox Daily Observations layout. Learn more.

Left ArrowRight Arrow

39.01783, -85.05884

Hourly Observations for November 23, 2019

Temp ( °F °C ) Dew Point ( °F °C ) Humidity (%) Winds ( mph kmh ) Pressure ( in mb ) Visibility ( mi km ) Precip ( " mm )
12:52 am 00:52 Mostly Cloudy 34 1.1 28 -2.2 79 79 ESE 7 11 30.04 1017 10 16 0.00 0.00
1:52 am 01:52 Cloudy 34 1.1 28 -2.2 79 79 E 7 11 30.02 1017 10 16 0.00 0.00
2:52 am 02:52 Mostly Cloudy 33 0.6 27 -2.8 78 78 E 7 11 30.00 1016 10 16 0.00 0.00
3:52 am 03:52 Cloudy 33 0.6 28 -2.2 82 82 E 6 9 29.98 1015 10 16 0.00 0.00
4:52 am 04:52 Cloudy 33 0.6 28 -2.2 82 82 E 6 9 29.96 1015 10 16 0.00 0.00
5:52 am 05:52 Cloudy 35 1.7 30 -1.1 82 82 E 12 19 29.91 1013 10 16 0.00 0.00
6:52 am 06:52 Mostly Cloudy 36 2.2 30 -1.1 79 79 E 10 17 29.88 1012 10 16 0.00 0.00
7:52 am 07:52 Mostly Cloudy 35 1.7 30 -1.1 82 82 E 7 11 29.84 1011 10 16 0.00 0.00
8:52 am 08:52 Mostly Cloudy 38 3.3 32 0 79 79 E 8 13 29.82 1010 10 16 0.00 0.00
8:59 am 08:59 Cloudy 38 3.3 32 0 79 79 E 9 15 29.84 1011 10 16 0.00 0.00
9:03 am 09:03 Cloudy 38 3.3 32 0 79 79 ESE 6 9 29.84 1011 10 16 0.00 0.00
9:52 am 09:52 Cloudy 39 3.9 33 0.6 79 79 E 9 15 29.80 1009 10 16 0.00 0.00
10:52 am 10:52 Cloudy 39 3.9 34 1.1 82 82 ENE 7 11 29.78 1009 10 16 0.00 0.00
11:52 am 11:52 Cloudy with Light Rain 40 4.4 35 1.7 83 83 NE 8 13 29.72 1007 3 5 0.00 0.00
12:30 pm 12:30 Cloudy 40 4.4 36 2.2 86 86 NE 13 20 29.69 1005 3 5 0.03 0.76
12:52 pm 12:52 Cloudy with Mist and Fog 40 4.4 37 2.8 89 89 NE 10 17 29.65 1004 6 10 0.03 0.76
1:32 pm 13:32 Cloudy with Light Rain 40 4.4 37 2.8 89 89 NE 9 15 29.65 1004 2 3 0.00 0.00
1:52 pm 13:52 Cloudy with Light Rain 40 4.4 37 2.8 89 89 NE 13 20 29.59 1002 1 2 0.00 0.00
2:12 pm 14:12 Cloudy with Light Rain 39 3.9 37 2.8 93 93 NE 12 19 29.61 1003 1 2 0.01 0.25
2:37 pm 14:37 Cloudy with Light Rain 40 4.4 37 2.8 89 89 N 5 7 29.62 1003 1 1 0.01 0.25
2:52 pm 14:52 Cloudy with Rain 40 4.4 38 3.3 93 93 WNW 9 15 29.61 1003 1 1 0.03 0.76
3:27 pm 15:27 Cloudy with Light Rain 38 3.3 36 2.2 93 93 NW 18 30 29.65 1004 1 1 0.04 1.02
4:01 pm 16:01 Cloudy with Mist and Fog 38 3.3 36 2.2 93 93 NNW 14 22 29.67 1005 1 1 0.04 1.02
4:46 pm 16:46 Cloudy with Light Rain 39 4 36 2 87 87 NNE 17 28 29.63 1003 1 1 0.13 3.30
4:52 pm 16:52 Cloudy with Light Rain 39 3.9 36 2.2 89 89 NNE 18 30 29.61 1003 1 1 0.13 3.30
4:54 pm 16:54 Cloudy with Light Rain 39 3.9 36 2.2 89 89 N 16 26 29.64 1004 7 11 0.00 0.00
5:18 pm 17:18 Cloudy 39 3.9 35 1.7 86 86 N 12 19 29.66 1004 10 16 0.00 0.00
5:38 pm 17:38 Cloudy 39 3.9 35 1.7 86 86 N 10 17 29.67 1005 10 16 0.00 0.00
5:43 pm 17:43 Cloudy 39 3.9 35 1.7 86 86 N 7 11 29.67 1005 10 16 0.00 0.00
5:46 pm 17:46 Cloudy 39 4 36 2 87 87 N 6 9 29.68 1005 10 16 0.00 0.00
5:50 pm 17:50 Cloudy 39 4 36 2 87 87 NNW 8 13 29.69 1005 10 16 0.00 0.00
5:52 pm 17:52 Cloudy 39 3.9 35 1.7 86 86 WNW 6 9 29.67 1005 10 16 0.00 0.00
6:38 pm 18:38 Cloudy 38 3.3 35 1.7 89 89 WNW 10 17 29.72 1007 9 14 0.00 0.00
6:52 pm 18:52 Cloudy 38 3.3 35 1.7 89 89 WNW 9 15 29.70 1006 9 14 0.00 0.00
7:16 pm 19:16 Cloudy with Mist and Fog 38 3.3 35 1.7 89 89 WNW 8 13 29.73 1007 6 10 0.00 0.00
7:42 pm 19:42 Cloudy with Mist and Fog 38 3.3 35 1.7 89 89 WNW 12 19 29.74 1007 3 5 0.00 0.00
7:52 pm 19:52 Cloudy with Mist and Fog 38 3.3 35 1.7 89 89 WNW 13 20 29.73 1007 4 6 0.00 0.00
8:01 pm 20:01 Cloudy with Mist and Fog 38 3.3 35 1.7 89 89 WNW 10 17 29.75 1008 4 6 0.00 0.00
8:52 pm 20:52 Cloudy with Drizzle 36 2.2 33 0.6 89 89 NW 13 20 29.75 1007 3 4 0.00 0.00
9:15 pm 21:15 Cloudy with Light Rain 35 1.7 33 0.6 93 93 NW 12 19 29.78 1008 3 5 0.00 0.00
9:52 pm 21:52 Cloudy with Drizzle 35 1.7 32 0 89 89 WNW 12 19 29.75 1008 4 6 0.01 0.25
10:52 pm 22:52 Cloudy with Light Snow 35 1.7 32 0 89 89 W 16 26 29.78 1008 6 10 0.01 0.25
11:24 pm 23:24 Cloudy with Light Snow 34 1.1 31 -0.6 89 89 WNW 15 24 29.82 1010 2 2 0.01 0.25

Powered by AerisWeather